DateTimeUTC,F1_A11,F1_S11,BsB_S11,BsG_S11,BsR_S11,BbsB_S11,BbsG_S11,BbsR_S11,BaB_A11,BaG_A11,BaR_A11,Tu_S11,T_S11,Uu_S11,U_S11,P_S11,T1_A11
2021-10-14T02:00:00Z,00000200,20000000,,,,,,,0000.10,0000.23,0000.05,16.7,23.6,01.6,01.1,0663.5,30.9
2021-10-14T02:01:00Z,00000200,20000000,,,,,,,0000.01,0000.15,0000.30,16.8,23.6,01.7,01.1,0663.5,30.9
2021-10-14T02:02:00Z,00000200,20000000,,,,,,,0000.36,0000.32,-000.09,16.8,23.7,01.7,01.1,0663.5,30.9
2021-10-14T02:03:00Z,00000200,60000000,,,,,,,0000.95,0000.54,0000.64,16.8,23.7,01.7,01.1,0663.5,30.9
2021-10-14T02:04:00Z,00000200,41000000,0005.41,0003.96,0002.03,0000.24,0000.68,0000.41,0001.11,0000.97,0001.05,17.2,23.6,01.9,01.3,0664.3,30.9
2021-10-14T02:05:00Z,00000200,01000000,0005.69,0004.10,0002.12,0000.04,0000.50,0000.06,0000.30,0000.56,-000.12,17.2,23.6,02.0,01.4,0664.6,30.9
2021-10-14T02:06:00Z,00000200,01000000,0005.53,0003.95,0002.00,0000.06,0000.54,0000.53,0001.49,0000.77,0001.05,17.1,23.5,02.1,01.4,0664.5,30.9
2021-10-14T02:07:00Z,00000200,00000000,0004.86,0003.91,0002.23,0000.49,0000.63,0000.55,0000.84,0000.91,0000.59,17.1,23.5,02.1,01.4,0664.5,30.9
2021-10-14T02:08:00Z,00000200,00000000,0005.22,0004.06,0002.05,0001.10,0000.45,0000.34,0000.79,0000.96,0000.57,17.0,23.5,02.1,01.4,0664.4,30.9
2021-10-14T02:09:00Z,00000200,00000000,0005.77,0004.31,0002.72,0000.85,0000.66,0000.28,0001.01,0000.93,0000.30,17.0,23.4,02.1,01.4,0664.4,30.9
2021-10-14T02:10:00Z,00000200,00000000,0005.43,0003.99,0002.13,0000.46,0000.54,0000.28,0001.04,0000.50,0000.89,16.9,23.4,02.1,01.4,0664.4,30.9
2021-10-14T02:11:00Z,00000200,01000000,0005.45,0004.10,0002.56,0000.59,0000.64,0000.58,0000.57,0000.81,0000.61,16.9,23.4,02.0,01.3,0664.4,30.9
2021-10-14T02:12:00Z,00000200,00000000,0005.33,0004.34,0002.36,0000.63,0000.63,0000.59,0000.75,0000.81,0000.25,16.9,23.4,02.1,01.4,0664.4,30.9
2021-10-14T02:13:00Z,00000200,00000000,0006.00,0004.22,0002.11,0000.79,0000.58,0000.14,0001.43,0001.23,0000.71,16.9,23.4,02.1,01.4,0664.4,30.9
2021-10-14T02:14:00Z,00000200,00000000,0005.73,0004.69,0002.38,0001.17,0000.48,0000.47,0000.80,0000.39,0001.00,16.9,23.4,02.0,01.3,0664.4,30.9
2021-10-14T02:15:00Z,00000200,00000000,0005.40,0004.07,0002.32,0000.24,0000.47,0000.26,0001.28,0001.29,0000.59,17.0,23.4,02.0,01.3,0664.4,30.9
2021-10-14T02:16:00Z,00000200,00000000,0004.85,0003.94,0001.85,0001.07,0000.59,0000.30,0000.51,0000.71,0000.30,17.1,23.4,02.0,01.3,0664.4,30.9
2021-10-14T02:17:00Z,00000200,00000000,0005.15,0004.20,0002.48,0000.43,0000.61,0000.49,0000.90,0001.03,0001.24,17.1,23.5,01.9,01.3,0664.4,30.9
2021-10-14T02:18:00Z,00000200,00000000,0005.57,0004.45,0002.19,0000.26,0000.35,0000.19,0001.12,0000.69,0000.27,17.2,23.5,01.9,01.3,0664.3,30.9
2021-10-14T02:19:00Z,00000200,00000000,0005.77,0004.47,0002.48,0000.29,0000.48,0000.52,0000.88,0000.29,0000.58,17.1,23.5,02.0,01.3,0664.3,30.9
2021-10-14T02:20:00Z,00000200,01000000,0005.31,0004.13,0002.14,0000.27,0000.66,0000.25,0000.74,0000.57,0000.23,17.1,23.5,01.8,01.2,0664.3,30.9
2021-10-14T02:21:00Z,00000200,01000000,0005.00,0003.72,0002.25,0000.93,0000.28,0000.54,0000.68,0000.90,0000.76,17.1,23.5,01.9,01.3,0664.2,30.9
2021-10-14T02:22:00Z,00000200,01000000,0005.48,0004.18,0002.06,0000.13,0000.84,0000.39,0000.76,0000.59,0000.13,17.0,23.4,01.8,01.2,0664.3,30.9
2021-10-14T02:23:00Z,00000200,00000000,0004.99,0004.24,0002.37,0000.88,0000.37,0001.04,0001.03,0000.97,0000.60,17.0,23.4,01.9,01.2,0664.2,30.9
2021-10-14T02:24:00Z,00000200,01000000,0005.72,0004.03,0002.23,0000.79,0000.42,0000.37,0001.08,0000.78,0000.79,16.9,23.4,01.8,01.2,0664.1,30.9
2021-10-14T02:25:00Z,00000200,00000000,0005.70,0004.13,0002.40,0001.00,0000.53,0000.53,0000.94,0001.05,0000.92,16.9,23.4,01.9,01.3,0664.2,30.9
2021-10-14T02:26:00Z,00000200,00000000,0005.19,0004.00,0002.40,0000.51,0000.45,0000.35,0001.09,0000.88,0000.50,16.8,23.3,01.9,01.3,0664.3,30.9
2021-10-14T02:27:00Z,00000200,01000000,0005.56,0003.95,0002.42,0000.18,0000.60,0000.39,0001.11,0001.21,0000.85,16.8,23.3,01.9,01.3,0664.3,30.9
2021-10-14T02:28:00Z,00000200,00000000,0004.99,0003.80,0002.22,0001.10,0000.41,0000.41,0000.66,0000.71,0000.44,16.9,23.3,02.0,01.4,0664.3,30.9
2021-10-14T02:29:00Z,00000200,00000000,0005.71,0004.13,0001.90,0000.84,0000.70,0000.41,0001.52,0001.12,0000.99,16.9,23.3,01.9,01.3,0664.3,30.9
2021-10-14T02:30:00Z,00000200,00000000,0005.20,0004.00,0002.18,0000.87,0000.24,0000.22,0001.19,0001.38,0001.00,17.0,23.4,02.0,01.4,0664.2,30.9
2021-10-14T02:31:00Z,00000200,00000000,0005.21,0003.82,0002.05,0000.44,0000.46,0000.55,0000.80,0000.69,0000.57,17.1,23.4,02.1,01.4,0664.2,30.9
2021-10-14T02:32:00Z,00000200,00000000,0004.86,0004.01,0002.15,0000.76,0000.72,0000.62,0001.20,0000.85,0000.65,17.2,23.4,02.2,01.5,0664.2,30.9
2021-10-14T02:33:00Z,00000200,00000000,0004.66,0004.01,0002.29,0000.66,0000.64,0000.14,0000.56,0000.54,0000.30,17.2,23.5,02.1,01.4,0664.1,31.0
2021-10-14T02:34:00Z,00000200,00000000,0005.46,0003.76,0002.21,-000.06,0000.79,0000.45,0000.76,0000.79,0000.53,17.3,23.5,02.0,01.4,0664.1,30.9
2021-10-14T02:35:00Z,00000200,01000000,0004.98,0003.77,0001.91,0000.89,0000.42,0000.04,0000.67,0000.65,0000.91,17.3,23.6,02.1,01.4,0664.1,31.0
2021-10-14T02:36:00Z,00000200,00000000,0004.57,0003.55,0002.18,0000.38,0000.76,0000.35,0001.03,0001.02,0000.16,17.3,23.6,02.0,01.4,0664.2,30.9
2021-10-14T02:37:00Z,00000200,00000000,0005.41,0003.89,0002.51,0000.12,0000.60,0000.61,0000.74,0000.62,0000.64,17.2,23.5,01.9,01.3,0664.3,30.9
2021-10-14T02:38:00Z,00000200,00000000,0005.70,0003.97,0002.31,0000.79,0000.61,0000.35,0000.70,0000.39,0000.48,17.2,23.5,02.0,01.4,0664.4,30.9
2021-10-14T02:39:00Z,00000200,01000000,0005.15,0003.70,0002.22,0000.55,0000.99,0000.45,0001.03,0000.90,0000.51,17.1,23.5,02.0,01.4,0664.4,30.9
2021-10-14T02:40:00Z,00000200,00000000,0006.32,0003.91,0002.34,0000.93,0000.27,0000.81,0001.33,0001.34,0000.91,17.1,23.4,02.1,01.4,0664.4,30.9
2021-10-14T02:41:00Z,00000200,00000000,0005.03,0003.59,0001.95,0000.78,0000.58,0000.29,0001.01,0000.70,0000.80,17.1,23.5,02.2,01.5,0664.4,30.9
2021-10-14T02:42:00Z,00000200,00000000,0005.21,0003.75,0002.19,0000.44,0000.43,0000.30,0000.70,0001.00,0000.36,17.1,23.4,02.1,01.4,0664.5,30.9
2021-10-14T02:43:00Z,00000200,00000000,0005.74,0003.73,0002.25,0000.37,0000.48,0000.56,0001.19,0000.43,0000.74,17.1,23.4,02.2,01.5,0664.3,30.9
2021-10-14T02:44:00Z,00000200,00000000,0005.53,0003.92,0001.89,0000.37,0000.28,0000.51,0001.22,0001.23,0000.88,17.1,23.4,02.3,01.5,0664.3,30.9
2021-10-14T02:45:00Z,00000200,00000000,0004.35,0003.76,0002.40,0000.12,0000.56,0000.49,0000.84,0000.81,0000.81,17.2,23.5,02.3,01.5,0664.3,30.9
2021-10-14T02:46:00Z,00000200,00000000,0005.21,0003.55,0001.97,0000.41,0000.34,0000.26,0000.68,0000.85,0000.30,17.3,23.5,02.2,01.5,0664.2,30.9
2021-10-14T02:47:00Z,00000200,00000000,0005.09,0003.79,0002.06,0000.83,0000.44,0000.38,0000.99,0000.50,0000.78,17.3,23.6,02.3,01.6,0664.3,30.9
2021-10-14T02:48:00Z,00000200,00000000,0004.08,0003.78,0002.22,0001.45,0000.49,0000.58,0000.65,0000.80,0000.21,17.3,23.6,02.3,01.6,0664.2,30.9
2021-10-14T02:49:00Z,00000200,00000000,0005.16,0003.56,0002.01,0000.63,0000.67,0000.35,0000.88,0001.10,0000.65,17.3,23.5,02.3,01.5,0664.2,30.9
2021-10-14T02:50:00Z,00000200,00000000,0005.45,0003.54,0002.11,0000.47,0000.77,0000.50,0000.61,0000.45,0000.13,17.2,23.5,02.2,01.5,0664.2,30.9
2021-10-14T02:51:00Z,00000200,00000000,0004.99,0003.50,0001.70,0000.62,0000.49,0000.43,0001.13,0000.65,0000.59,17.2,23.5,02.3,01.6,0664.1,30.9
2021-10-14T02:52:00Z,00000200,00000000,0004.17,0003.56,0001.83,0000.31,0000.38,0000.05,0000.82,0001.26,0000.70,17.1,23.5,02.3,01.6,0664.1,30.9
2021-10-14T02:53:00Z,00000200,00000000,0004.11,0003.69,0001.98,-000.31,0000.53,0000.07,0000.84,0000.50,0000.76,17.1,23.4,02.5,01.7,0664.2,30.9
2021-10-14T02:54:00Z,00000200,00000000,0004.55,0003.59,0002.08,0000.94,0000.39,0000.22,0000.93,0000.80,0000.50,17.0,23.4,02.5,01.7,0664.2,30.9
2021-10-14T02:55:00Z,00000200,00000000,0004.33,0003.81,0002.07,0000.80,0000.47,0000.17,0000.86,0000.75,0000.89,17.0,23.4,02.3,01.6,0664.3,30.9
2021-10-14T02:56:00Z,00000200,00000000,0004.90,0003.46,0001.69,-000.04,0000.40,0000.38,0001.01,0000.78,0000.32,16.9,23.4,02.5,01.7,0664.4,30.9
2021-10-14T02:57:00Z,00000200,40000000,,,,,,,-000.29,0000.03,0000.39,17.0,23.4,01.9,01.3,0664.2,30.9
2021-10-14T02:58:00Z,00000200,60000000,,,,,,,0000.51,-000.14,0000.03,16.7,23.5,02.2,01.4,0663.5,30.9
2021-10-14T02:59:00Z,00000200,20000000,,,,,,,-000.03,0000.51,-000.05,16.7,23.6,02.3,01.5,0663.4,30.9
